EW3967 Weather Reports


Display with metric or nautical units.
time (UTC)temp
F
wind
direction
speed
MPH
gust
MPH
rain 1hr
in
rain 24hr
in
rain mn
in
humidity
%
barometer
mb
20260906000032 98 149 1.0 4.0 0.00 0.00 0.00 35 1008.5
20260905234632 98 96 2.0 6.0 0.00 0.00 0.00 35 1008.4
20260905233031 98 116 2.0 7.0 0.00 0.00 0.00 35 1008.3
20260905231536 98 169 4.0 10.0 0.00 0.00 0.00 35 1008.2
20260905230031 98 76 2.0 7.0 0.00 0.00 0.00 36 1008.2
20260905224533 99 184 2.0 10.0 0.00 0.00 0.00 34 1008.1
20260905223028 101 167 2.0 7.0 0.00 0.00 0.00 33 1008.0
20260905221526 100 124 3.0 8.0 0.00 0.00 0.00 34 1008.2
20260905220024 101 117 3.0 11.0 0.00 0.00 0.00 33 1008.3
20260905214521 100 226 1.0 10.0 0.00 0.00 0.00 34 1008.5
20260905213035 100 71 1.0 10.0 0.00 0.00 0.00 34 1008.7
20260905211517 100 169 2.0 8.0 0.00 0.00 0.00 35 1008.8
20260905210014 99 189 4.0 9.0 0.00 0.00 0.00 35 1009.0
20260905204517 98 219 1.0 12.0 0.00 0.00 0.00 37 1009.2
20260905203009 97 149 4.0 9.0 0.00 0.00 0.00 38 1009.5
20260905201507 98 219 5.0 11.0 0.00 0.00 0.00 37 1009.8
20260905200005 99 105 4.0 11.0 0.00 0.00 0.00 37 1010.0
20260905194502 98 157 2.0 9.0 0.00 0.00 0.00 37 1010.3
20260905193108 98 217 4.0 14.0 0.00 0.00 0.00 36 1010.6
20260905191600 97 148 3.0 10.0 0.00 0.00 0.00 38 1010.9
20260905190059 98 169 3.0 11.0 0.00 0.00 0.00 37 1011.0
20260905184556 97 133 3.0 13.0 0.00 0.00 0.00 39 1011.2
20260905183057 97 82 2.0 14.0 0.00 0.00 0.00 39 1011.3
20260905181554 98 152 2.0 6.0 0.00 0.00 0.00 39 1011.5
20260905180058 97 155 1.0 13.0 0.00 0.00 0.00 42 1011.7
20260905174550 96 253 3.0 9.0 0.00 0.00 0.00 40 1011.8
20260905173051 96 171 5.0 8.0 0.00 0.00 0.00 40 1012.1
20260905171546 96 130 2.0 6.0 0.00 0.00 0.00 42 1012.1
20260905170050 96 86 0.0 5.0 0.00 0.00 0.00 41 1012.2
20260905164541 95 262 2.0 10.0 0.00 0.00 0.00 44 1012.3
20260905163037 94 148 2.0 7.0 0.00 0.00 0.00 46 1012.4
20260905161534 93 268 2.0 7.0 0.00 0.00 0.00 46 1012.4
20260905160041 92 276 1.0 6.0 0.00 0.00 0.00 48 1012.4
20260905154531 92 259 4.0 8.0 0.00 0.00 0.00 49 1012.4
20260905153036 92 242 3.0 8.0 0.00 0.00 0.00 49 1012.4
20260905151524 91 155 2.0 7.0 0.00 0.00 0.00 52 1012.3
20260905150017 90 239 1.0 6.0 0.00 0.00 0.00 54 1012.2
20260905144514 88 230 2.0 8.0 0.00 0.00 0.00 56 1012.2
20260905143011 87 231 2.0 7.0 0.00 0.00 0.00 58 1012.2
20260905141508 86 220 2.0 10.0 0.00 0.00 0.00 59 1012.2
20260905140006 86 185 2.0 10.0 0.00 0.00 0.00 60 1012.1
20260905134503 85 248 1.0 4.0 0.00 0.00 0.00 62 1012.0
20260905133002 83 248 1.0 4.0 0.00 0.00 0.00 64 1012.1
20260905131601 82 158 1.0 5.0 0.00 0.00 0.00 66 1012.0
20260905130058 80 238 0.0 5.0 0.00 0.00 0.00 68 1011.9
20260905124657 79 160 1.0 5.0 0.00 0.00 0.00 70 1011.7
20260905123056 78 167 1.0 5.0 0.00 0.00 0.00 72 1011.6
20260905121553 77 162 0.0 4.0 0.00 0.00 0.00 72 1011.5
20260905120056 77 171 1.0 4.0 0.00 0.00 0.00 72 1011.3
20260905114551 78 200 0.0 4.0 0.00 0.00 0.00 72 1011.3
20260905113051 78 146 1.0 5.0 0.00 0.00 0.00 72 1011.1
20260905111623 78 160 1.0 3.0 0.00 0.00 0.00 72 1011.2
20260905110048 78 235 1.0 4.0 0.00 0.00 0.00 71 1011.2
20260905104547 78 144 0.0 3.0 0.00 0.00 0.00 72 1011.2
20260905103047 77 153 0.0 2.0 0.00 0.00 0.00 72 1011.1
20260905101546 78 164 0.0 1.0 0.00 0.00 0.00 71 1011.2
20260905100045 78 164 0.0 1.0 0.00 0.00 0.00 71 1011.1
20260905094540 79 210 0.0 1.0 0.00 0.00 0.00 70 1011.2
20260905093042 79 160 0.0 2.0 0.00 0.00 0.00 69 1011.1
20260905091538 79 250 1.0 3.0 0.00 0.00 0.00 69 1011.1
20260905090037 79 165 0.0 4.0 0.00 0.00 0.00 68 1010.8
20260905084534 79 149 0.0 3.0 0.00 0.00 0.00 68 1010.8
20260905083037 80 158 1.0 5.0 0.00 0.00 0.00 67 1010.8
20260905081530 80 158 0.0 6.0 0.00 0.00 0.00 66 1010.6
20260905080041 81 179 1.0 3.0 0.00 0.00 0.00 65 1010.8
20260905074528 81 194 1.0 4.0 0.00 0.00 0.00 65 1010.8
20260905073027 82 159 1.0 4.0 0.00 0.00 0.00 64 1010.8
20260905071524 82 167 1.0 5.0 0.00 0.00 0.00 63 1010.9
20260905070022 82 151 1.0 5.0 0.00 0.00 0.00 62 1010.9
20260905064528 83 230 0.0 6.0 0.00 0.00 0.00 60 1010.9
20260905063019 83 200 3.0 8.0 0.00 0.00 0.00 60 1010.9
20260905061518 83 155 3.0 7.0 0.00 0.00 0.00 60 1010.9
20260905060029 83 200 1.0 5.0 0.00 0.00 0.00 60 1011.0
20260905054515 83 154 1.0 5.0 0.00 0.00 0.00 59 1011.1
20260905053027 83 158 1.0 5.0 0.00 0.00 0.00 59 1011.1
20260905051512 84 167 0.0 4.0 0.00 0.00 0.00 58 1011.1
20260905050010 84 155 1.0 5.0 0.00 0.00 0.00 57 1011.2
20260905044509 85 146 2.0 4.0 0.00 0.00 0.00 56 1011.2
20260905043008 85 138 2.0 6.0 0.00 0.00 0.00 55 1011.2
20260905041508 86 153 3.0 6.0 0.00 0.00 0.00 55 1011.0
20260905040016 87 166 4.0 6.0 0.00 0.00 0.00 54 1011.0
20260905034507 87 148 4.0 8.0 0.00 0.00 0.00 53 1011.1
20260905033007 87 146 4.0 8.0 0.00 0.00 0.00 53 1010.9
20260905031506 88 160 3.0 9.0 0.00 0.00 0.00 52 1010.7
20260905030007 88 159 4.0 6.0 0.00 0.00 0.00 52 1010.5
20260905024510 88 181 3.0 7.0 0.00 0.00 0.00 52 1010.3
20260905023006 89 165 4.0 8.0 0.00 0.00 0.00 52 1010.1
20260905021507 89 155 4.0 9.0 0.00 0.00 0.00 51 1009.8
20260905020004 89 187 2.0 6.0 0.00 0.00 0.00 51 1009.6
20260905014503 90 147 2.0 4.0 0.00 0.00 0.00 50 1009.3
20260905013002 90 158 1.0 3.0 0.00 0.00 0.00 49 1009.2
20260905011503 91 170 1.0 4.0 0.00 0.00 0.00 48 1008.9
20260905010001 92 184 2.0 6.0 0.00 0.00 0.00 46 1008.8
20260905004501 93 138 3.0 6.0 0.00 0.00 0.00 45 1008.8
20260905003001 94 167 4.0 10.0 0.00 0.00 0.00 43 1008.7
20260905001600 95 162 4.0 10.0 0.00 0.00 0.00 42 1008.6